Location: Observatoire
(46.1952°N, 5.3391°E)
Time: 08:20:30
(UTC+01:00)

Altair - Pass Details

Date: 24 February 2026
Orbit: 1502 x 1682 km, 47.2° (Epoch: 9 March)

Event Time Altitude Azimuth Distance (km) Brightness Sun altitude
Rises 03:28:58 0° 227° (SW) 4,628 - -40.4°
Reaches altitude 10° 03:32:02 10° 223° (SW) 3,645 - -39.9°
Maximum altitude 03:40:54 58° 148° (SSE) 1,726 - -38.6°
Exits shadow 03:41:40 56° 129° (SE) 1,750 7.7 -38.5°
Drops below altitude 10° 03:49:56 10° 73° (ENE) 3,711 10.2 -37.3°
Sets 03:53:04 0° 69° (ENE) 4,716 11.0 -36.8°
